TVP151 EPKK-GCFV

Flight info

Callsign TVP151
Flight time N/A
Altitude 36000
Route BABKO5J BABKO DCT VADEX DCT BABNI DCT DETSA/N0447F350 DCT NESTI DCT VOG DCT GEKBA DCT VAMTU DCT KOLON DCT GANGU DCT PADKO DCT DIVKO DCT NILDU DCT NENDA DCT BCN/N0448F370 DCT RODRA DCT PEXOT DCT EBROX DCT LOTOS DCT TORDU DCT DIKUT DCT SOPET DCT VLC DCT SERRA DCT ASTRO DCT POBOS DCT XEBAR DCT YES DCT MAMIS DCT BAZAS DCT VIBAS DCT MGA DCT PIMOS DCT GALTO UN869 PELAX UB11 MABAP UN869 RUSIK RUSIK5S
Aircraft B78M/M-SDE2E3FGHIRWXY/LB1

Departure

Time 2026-05-01 15:09
Airport Kraków John Paul II International Airport (EPKK)

Arrival

Time N/A
Airport Fuerteventura Airport (GCFV)
Time Latitude Longitude Altitude Speed Heading
2026-05-01 14:48 50.07594 19.79469 793 ft 0 kts 228°
2026-05-01 15:04 50.07594 19.79468 793 ft 0 kts 234°
2026-05-01 15:05 50.07596 19.79453 793 ft 3 kts 286°
2026-05-01 15:05 50.07613 19.79433 793 ft 3 kts 337°
2026-05-01 15:05 50.07636 19.79436 793 ft 4 kts 28°
2026-05-01 15:05 50.07652 19.79471 792 ft 5 kts 69°
2026-05-01 15:06 50.07668 19.79569 792 ft 13 kts 77°
2026-05-01 15:06 50.07693 19.79742 791 ft 18 kts 77°
2026-05-01 15:06 50.07721 19.79938 791 ft 19 kts 77°
2026-05-01 15:06 50.07750 19.80142 790 ft 20 kts 77°
2026-05-01 15:07 50.07779 19.80312 789 ft 14 kts 56°
2026-05-01 15:07 50.07869 19.80322 789 ft 14 kts 346°
2026-05-01 15:07 50.07964 19.80291 789 ft 14 kts 348°
2026-05-01 15:07 50.08004 19.80179 790 ft 13 kts 263°
2026-05-01 15:08 50.07979 19.80000 791 ft 37 kts 257°
2026-05-01 15:08 50.07872 19.79219 793 ft 108 kts 258°
2026-05-01 15:08 50.07669 19.77759 796 ft 166 kts 258°
2026-05-01 15:08 50.07377 19.75878 1184 ft 184 kts 263°
2026-05-01 15:09 50.07094 19.73898 1996 ft 186 kts 263°
2026-05-01 15:09 50.06828 19.71929 2821 ft 192 kts 263°
2026-05-01 15:09 50.06543 19.69779 3197 ft 214 kts 261°
2026-05-01 15:09 50.06148 19.67380 3565 ft 245 kts 248°
2026-05-01 15:10 50.05003 19.65255 3918 ft 274 kts 211°
2026-05-01 15:10 50.01329 19.65169 5636 ft 272 kts 167°
2026-05-01 15:10 49.99461 19.65000 5433 ft 295 kts 211°
2026-05-01 15:11 49.98620 19.62478 758 ft 250 kts 321°
2026-05-01 15:11 49.99152 19.60496 720 ft 0 kts 330°